Time,TemperatureF,DewpointF,PressureIn,WindDirection,WindDirectionDegrees,WindSpeedMPH,WindSpeedGustMPH,Humidity,HourlyPrecipIn,Conditions,Clouds,dailyrainin,SoftwareType,DateUTC
2013-11-15 00:01:00,39.2,39.2,30.08,NW,315,3.5,0.0,100,0.00,,,0.00,WeatherDisplay:10.37,2013-11-15 05:01:00,
2013-11-15 00:02:00,39.2,39.2,30.08,SW,225,3.5,3.5,100,0.00,,,0.00,WeatherDisplay:10.37,2013-11-15 05:02:00,
2013-11-15 00:07:00,39.2,39.2,30.08,South,180,2.3,2.3,100,0.00,,,0.00,WeatherDisplay:10.37,2013-11-15 05:07:00,
2013-11-15 00:10:00,39.4,39.4,30.07,SW,225,3.5,0.0,100,0.00,,,0.00,WeatherDisplay:10.37,2013-11-15 05:10:00,
2013-11-15 00:15:00,39.7,39.7,30.08,South,180,3.5,3.5,100,0.00,,,0.00,WeatherDisplay:10.37,2013-11-15 05:15:00,
2013-11-15 00:20:00,39.7,39.7,30.07,South,180,4.6,4.6,100,0.00,,,0.00,WeatherDisplay:10.37,2013-11-15 05:20:00,
2013-11-15 00:25:00,40.1,40.1,30.07,SSW,202,3.5,3.5,100,0.00,,,0.00,WeatherDisplay:10.37,2013-11-15 05:25:00,
2013-11-15 00:30:00,40.5,40.5,30.07,SW,225,5.8,5.8,100,0.00,,,0.00,WeatherDisplay:10.37,2013-11-15 05:30:00,
2013-11-15 00:35:00,40.6,40.6,30.07,SE,135,3.5,3.5,100,0.00,,,0.00,WeatherDisplay:10.37,2013-11-15 05:35:00,
2013-11-15 00:40:00,40.6,40.6,30.07,SW,225,3.5,3.5,100,0.00,,,0.00,WeatherDisplay:10.37,2013-11-15 05:40:00,
2013-11-15 00:45:00,40.8,40.8,30.07,South,180,3.5,3.5,100,0.00,,,0.00,WeatherDisplay:10.37,2013-11-15 05:45:00,
2013-11-15 00:50:00,40.8,40.8,30.07,South,180,4.6,4.6,100,0.00,,,0.00,WeatherDisplay:10.37,2013-11-15 05:50:00,
2013-11-15 00:55:00,40.6,40.6,30.07,South,180,3.5,0.0,100,0.00,,,0.00,WeatherDisplay:10.37,2013-11-15 05:55:00,
2013-11-15 01:00:00,40.6,40.6,30.07,South,180,4.6,4.6,100,0.00,,,0.00,WeatherDisplay:10.37,2013-11-15 06:00:00,
2013-11-15 01:05:00,40.5,40.5,30.07,South,180,2.3,2.3,100,0.00,,,0.00,WeatherDisplay:10.37,2013-11-15 06:05:00,
2013-11-15 01:10:00,40.6,40.6,30.08,South,180,5.8,5.8,100,0.00,,,0.00,WeatherDisplay:10.37,2013-11-15 06:10:00,
2013-11-15 01:15:00,40.6,40.6,30.08,South,180,4.6,4.6,100,0.00,,,0.00,WeatherDisplay:10.37,2013-11-15 06:15:00,
2013-11-15 01:20:00,40.6,40.6,30.08,South,180,3.5,3.5,100,0.00,,,0.00,WeatherDisplay:10.37,2013-11-15 06:20:00,
2013-11-15 01:25:00,40.6,40.6,30.08,South,180,3.5,0.0,100,0.00,,,0.00,WeatherDisplay:10.37,2013-11-15 06:25:00,
2013-11-15 01:30:00,40.5,40.5,30.07,SSE,158,5.8,5.8,100,0.00,,,0.00,WeatherDisplay:10.37,2013-11-15 06:30:00,
2013-11-15 01:35:00,40.5,40.5,30.08,South,180,3.5,3.5,100,0.00,,,0.00,WeatherDisplay:10.37,2013-11-15 06:35:00,
2013-11-15 01:40:00,40.1,40.1,30.08,South,180,2.3,2.3,100,0.00,,,0.00,WeatherDisplay:10.37,2013-11-15 06:40:00,
2013-11-15 01:45:00,40.1,40.1,30.07,SW,225,4.6,4.6,100,0.00,,,0.00,WeatherDisplay:10.37,2013-11-15 06:45:00,
2013-11-15 01:50:00,39.9,39.9,30.07,South,180,3.5,3.5,100,0.00,,,0.00,WeatherDisplay:10.37,2013-11-15 06:50:00,
2013-11-15 01:55:00,39.7,39.7,30.07,SW,225,3.5,3.5,100,0.00,,,0.00,WeatherDisplay:10.37,2013-11-15 06:55:00,
2013-11-15 02:00:00,39.7,39.7,30.07,South,180,4.6,4.6,100,0.00,,,0.00,WeatherDisplay:10.37,2013-11-15 07:00:00,
2013-11-15 02:05:00,39.7,39.7,30.08,South,180,3.5,3.5,100,0.00,,,0.00,WeatherDisplay:10.37,2013-11-15 07:05:00,
2013-11-15 02:10:00,39.6,39.6,30.08,South,180,8.1,8.1,100,0.00,,,0.00,WeatherDisplay:10.37,2013-11-15 07:10:00,
2013-11-15 02:15:00,39.2,39.2,30.08,South,180,4.6,4.6,100,0.00,,,0.00,WeatherDisplay:10.37,2013-11-15 07:15:00,
2013-11-15 02:20:00,39.0,39.0,30.08,South,180,3.5,0.0,100,0.00,,,0.00,WeatherDisplay:10.37,2013-11-15 07:20:00,
2013-11-15 02:25:00,38.8,38.8,30.08,South,180,2.3,2.3,100,0.00,,,0.00,WeatherDisplay:10.37,2013-11-15 07:25:00,
2013-11-15 02:30:00,38.7,38.7,30.08,South,180,3.5,3.5,100,0.00,,,0.00,WeatherDisplay:10.37,2013-11-15 07:30:00,
2013-11-15 02:35:00,38.5,38.5,30.08,South,180,2.3,0.0,100,0.00,,,0.00,WeatherDisplay:10.37,2013-11-15 07:35:00,
2013-11-15 02:40:00,38.1,38.1,30.08,South,180,2.3,2.3,100,0.00,,,0.00,WeatherDisplay:10.37,2013-11-15 07:40:00,
2013-11-15 02:45:00,37.9,37.9,30.08,South,180,1.2,0.0,100,0.00,,,0.00,WeatherDisplay:10.37,2013-11-15 07:45:00,
2013-11-15 02:50:00,37.8,37.8,30.08,South,180,2.3,0.0,100,0.00,,,0.00,WeatherDisplay:10.37,2013-11-15 07:50:00,
2013-11-15 02:55:00,37.8,37.8,30.08,South,180,2.3,2.3,100,0.00,,,0.00,WeatherDisplay:10.37,2013-11-15 07:55:00,
2013-11-15 03:00:00,37.6,37.6,30.08,South,180,3.5,3.5,100,0.00,,,0.00,WeatherDisplay:10.37,2013-11-15 08:00:00,
2013-11-15 03:05:00,37.8,37.8,30.08,South,180,3.5,0.0,100,0.00,,,0.00,WeatherDisplay:10.37,2013-11-15 08:05:00,
2013-11-15 03:10:00,37.8,37.8,30.08,South,180,3.5,3.5,100,0.00,,,0.00,WeatherDisplay:10.37,2013-11-15 08:10:00,
2013-11-15 03:16:00,37.6,37.6,30.08,South,180,2.3,2.3,100,0.00,,,0.00,WeatherDisplay:10.37,2013-11-15 08:16:00,
2013-11-15 03:21:00,37.4,37.4,30.08,NE,45,1.2,0.0,100,0.00,,,0.00,WeatherDisplay:10.37,2013-11-15 08:21:00,
2013-11-15 03:26:00,37.4,37.4,30.08,South,180,3.5,3.5,100,0.00,,,0.00,WeatherDisplay:10.37,2013-11-15 08:26:00,
2013-11-15 03:31:00,37.6,37.6,30.08,South,180,1.2,0.0,100,0.00,,,0.00,WeatherDisplay:10.37,2013-11-15 08:31:00,
2013-11-15 03:36:00,37.6,-14.2,30.08,South,180,2.3,2.3,10,0.00,CLR,,0.00,WeatherDisplay:10.37,2013-11-15 08:36:00,
2013-11-15 03:41:00,37.6,-14.2,30.08,SE,135,1.2,1.2,10,0.00,CLR,,0.00,WeatherDisplay:10.37,2013-11-15 08:41:00,
2013-11-15 03:46:00,37.6,-12.3,30.08,South,180,2.3,0.0,11,0.00,CLR,,0.00,WeatherDisplay:10.37,2013-11-15 08:46:00,
2013-11-15 03:51:00,37.6,-10.6,30.08,SW,225,2.3,2.3,12,0.00,CLR,,0.00,WeatherDisplay:10.37,2013-11-15 08:51:00,
2013-11-15 03:56:00,37.8,-10.4,30.08,South,180,5.8,5.8,12,0.00,CLR,,0.00,WeatherDisplay:10.37,2013-11-15 08:56:00,
2013-11-15 04:01:00,37.6,-12.3,30.08,SSW,202,2.3,0.0,11,0.00,CLR,,0.00,WeatherDisplay:10.37,2013-11-15 09:01:00,
2013-11-15 04:06:00,37.4,-12.5,30.07,South,180,1.2,0.0,11,0.00,CLR,,0.00,WeatherDisplay:10.37,2013-11-15 09:06:00,
2013-11-15 04:11:00,37.2,-9.2,30.08,South,180,2.3,0.0,13,0.00,CLR,,0.00,WeatherDisplay:10.37,2013-11-15 09:11:00,
2013-11-15 04:16:00,37.2,-9.2,30.08,South,180,3.5,3.5,13,0.00,CLR,,0.00,WeatherDisplay:10.37,2013-11-15 09:16:00,
2013-11-15 04:21:00,37.4,-7.6,30.08,SSW,202,3.5,0.0,14,0.00,CLR,,0.00,WeatherDisplay:10.37,2013-11-15 09:21:00,
2013-11-15 04:26:00,37.4,-9.1,30.08,SW,225,3.5,3.5,13,0.00,CLR,,0.00,WeatherDisplay:10.37,2013-11-15 09:26:00,
2013-11-15 04:31:00,37.4,-7.6,30.08,South,180,3.5,3.5,14,0.00,CLR,,0.00,WeatherDisplay:10.37,2013-11-15 09:31:00,
2013-11-15 04:36:00,37.2,-9.2,30.08,South,180,1.2,0.0,13,0.00,CLR,,0.00,WeatherDisplay:10.37,2013-11-15 09:36:00,
2013-11-15 04:41:00,37.0,-9.4,30.08,SW,225,3.5,0.0,13,0.00,CLR,,0.00,WeatherDisplay:10.37,2013-11-15 09:41:00,
2013-11-15 04:46:00,36.9,-8.0,30.08,South,180,3.5,3.5,14,0.00,CLR,,0.00,WeatherDisplay:10.37,2013-11-15 09:46:00,
2013-11-15 04:51:00,37.0,-6.4,30.08,South,180,3.5,0.0,15,0.00,CLR,,0.00,WeatherDisplay:10.37,2013-11-15 09:51:00,
2013-11-15 04:56:00,37.0,-6.4,30.08,South,180,3.5,0.0,15,0.00,CLR,,0.00,WeatherDisplay:10.37,2013-11-15 09:56:00,
2013-11-15 05:01:00,37.0,-6.4,30.07,South,180,3.5,0.0,15,0.00,CLR,,0.00,WeatherDisplay:10.37,2013-11-15 10:01:00,
2013-11-15 05:06:00,37.0,-6.4,30.07,South,180,4.6,0.0,15,0.00,CLR,,0.00,WeatherDisplay:10.37,2013-11-15 10:06:00,
2013-11-15 05:11:00,37.2,-6.3,30.08,South,180,2.3,2.3,15,0.00,CLR,,0.00,WeatherDisplay:10.37,2013-11-15 10:11:00,
2013-11-15 05:16:00,37.2,-6.3,30.08,South,180,2.3,0.0,15,0.00,CLR,,0.00,WeatherDisplay:10.37,2013-11-15 10:16:00,
2013-11-15 05:21:00,37.0,-6.4,30.08,South,180,3.5,3.5,15,0.00,CLR,,0.00,WeatherDisplay:10.37,2013-11-15 10:21:00,
2013-11-15 05:26:00,36.9,-6.6,30.09,South,180,1.2,1.2,15,0.00,CLR,,0.00,WeatherDisplay:10.37,2013-11-15 10:26:00,
2013-11-15 05:31:00,36.9,-5.2,30.09,South,180,3.5,3.5,16,0.00,CLR,,0.00,WeatherDisplay:10.37,2013-11-15 10:31:00,
2013-11-15 05:36:00,36.9,-5.2,30.09,South,180,2.3,2.3,16,0.00,CLR,,0.00,WeatherDisplay:10.37,2013-11-15 10:36:00,
2013-11-15 05:41:00,36.7,-5.4,30.10,South,180,3.5,3.5,16,0.00,CLR,,0.00,WeatherDisplay:10.37,2013-11-15 10:41:00,
2013-11-15 05:46:00,36.5,-5.5,30.10,South,180,2.3,2.3,16,0.00,CLR,,0.00,WeatherDisplay:10.37,2013-11-15 10:46:00,
2013-11-15 05:51:00,36.5,-5.5,30.10,South,180,2.3,2.3,16,0.00,CLR,,0.00,WeatherDisplay:10.37,2013-11-15 10:51:00,
2013-11-15 05:56:00,36.1,-5.8,30.09,South,180,2.3,2.3,16,0.00,CLR,,0.00,WeatherDisplay:10.37,2013-11-15 10:56:00,
2013-11-15 06:01:00,36.1,-4.6,30.09,South,180,2.3,0.0,17,0.00,CLR,,0.00,WeatherDisplay:10.37,2013-11-15 11:01:00,
2013-11-15 06:06:00,36.0,-4.7,30.09,West,270,0.0,0.0,17,0.00,CLR,,0.00,WeatherDisplay:10.37,2013-11-15 11:06:00,
2013-11-15 06:11:00,35.6,-5.0,30.10,South,180,1.2,0.0,17,0.00,CLR,,0.00,WeatherDisplay:10.37,2013-11-15 11:11:00,
2013-11-15 06:16:00,35.6,-3.8,30.10,South,180,2.3,0.0,18,0.00,CLR,,0.00,WeatherDisplay:10.37,2013-11-15 11:16:00,
2013-11-15 06:21:00,35.6,-2.7,30.10,South,180,1.2,1.2,19,0.00,CLR,,0.00,WeatherDisplay:10.37,2013-11-15 11:21:00,
2013-11-15 06:26:00,35.4,-2.8,30.10,South,180,1.2,0.0,19,0.00,CLR,,0.00,WeatherDisplay:10.37,2013-11-15 11:26:00,
2013-11-15 06:31:00,35.2,-3.0,30.10,South,180,0.0,0.0,19,0.00,CLR,,0.00,WeatherDisplay:10.37,2013-11-15 11:31:00,
2013-11-15 06:36:00,35.1,-3.1,30.10,South,180,2.3,0.0,19,0.00,CLR,,0.00,WeatherDisplay:10.37,2013-11-15 11:36:00,
2013-11-15 06:41:00,35.1,-2.1,30.10,SSW,202,1.2,0.0,20,0.00,CLR,,0.00,WeatherDisplay:10.37,2013-11-15 11:41:00,
2013-11-15 06:46:00,35.1,-2.1,30.10,South,180,0.0,0.0,20,0.00,CLR,,0.00,WeatherDisplay:10.37,2013-11-15 11:46:00,
2013-11-15 06:51:00,34.9,-2.2,30.10,South,180,0.0,0.0,20,0.00,CLR,,0.00,WeatherDisplay:10.37,2013-11-15 11:51:00,
2013-11-15 06:56:00,34.7,-2.4,30.09,SW,225,0.0,0.0,20,0.00,CLR,,0.00,WeatherDisplay:10.37,2013-11-15 11:56:00,
2013-11-15 07:01:00,34.9,-0.2,30.10,South,180,2.3,0.0,22,0.00,CLR,,0.00,WeatherDisplay:10.37,2013-11-15 12:01:00,
2013-11-15 07:06:00,35.2,1.1,30.10,South,180,2.3,2.3,23,0.00,CLR,,0.00,WeatherDisplay:10.37,2013-11-15 12:06:00,
2013-11-15 07:11:00,35.6,1.4,30.10,SSE,158,2.3,2.3,23,0.00,CLR,,0.00,WeatherDisplay:10.37,2013-11-15 12:11:00,
2013-11-15 07:16:00,36.1,1.8,30.11,South,180,2.3,2.3,23,0.00,CLR,,0.00,WeatherDisplay:10.37,2013-11-15 12:16:00,
2013-11-15 07:21:00,36.7,2.3,30.11,South,180,2.3,2.3,23,0.00,CLR,,0.00,WeatherDisplay:10.37,2013-11-15 12:21:00,
2013-11-15 07:26:00,37.2,1.8,30.12,South,180,1.2,1.2,22,0.00,CLR,,0.00,WeatherDisplay:10.37,2013-11-15 12:26:00,
2013-11-15 07:31:00,37.6,1.1,30.11,South,180,1.2,0.0,21,0.00,CLR,,0.00,WeatherDisplay:10.37,2013-11-15 12:31:00,
2013-11-15 07:36:00,38.3,0.7,30.11,South,180,2.3,2.3,20,0.00,CLR,,0.00,WeatherDisplay:10.37,2013-11-15 12:36:00,
2013-11-15 07:41:00,38.8,0.0,30.11,South,180,3.5,3.5,19,0.00,CLR,,0.00,WeatherDisplay:10.37,2013-11-15 12:41:00,
2013-11-15 07:46:00,39.6,-1.8,30.11,South,180,3.5,3.5,17,0.00,CLR,,0.00,WeatherDisplay:10.37,2013-11-15 12:46:00,
2013-11-15 07:51:00,39.9,-4.1,30.11,ENE,68,5.8,5.8,15,0.00,CLR,,0.00,WeatherDisplay:10.37,2013-11-15 12:51:00,
2013-11-15 07:56:00,40.5,-6.6,30.11,SE,135,3.5,3.5,13,0.00,CLR,,0.00,WeatherDisplay:10.37,2013-11-15 12:56:00,
2013-11-15 08:01:00,41.0,-7.8,30.11,South,180,4.6,4.6,12,0.00,CLR,,0.00,WeatherDisplay:10.37,2013-11-15 13:01:00,
2013-11-15 08:06:00,41.4,-9.3,30.11,South,180,2.3,2.3,11,0.00,CLR,,0.00,WeatherDisplay:10.37,2013-11-15 13:06:00,
2013-11-15 08:11:00,41.7,-11.0,30.11,SE,135,5.8,0.0,10,0.00,CLR,,0.00,WeatherDisplay:10.37,2013-11-15 13:11:00,
2013-11-15 08:16:00,42.3,-10.6,30.11,SW,225,2.3,2.3,10,0.00,CLR,,0.00,WeatherDisplay:10.37,2013-11-15 13:16:00,
2013-11-15 08:21:00,42.8,-10.2,30.12,South,180,2.3,2.3,10,0.00,CLR,,0.00,WeatherDisplay:10.37,2013-11-15 13:21:00,
2013-11-15 08:26:00,43.3,-9.7,30.11,South,180,3.5,0.0,10,0.00,CLR,,0.00,WeatherDisplay:10.37,2013-11-15 13:26:00,
2013-11-15 08:31:00,43.9,-9.3,30.12,South,180,5.8,5.8,10,0.00,CLR,,0.00,WeatherDisplay:10.37,2013-11-15 13:31:00,
2013-11-15 08:36:00,44.2,-9.0,30.12,South,180,5.8,5.8,10,0.00,CLR,,0.00,WeatherDisplay:10.37,2013-11-15 13:36:00,
2013-11-15 08:41:00,44.4,-8.9,30.12,SW,225,4.6,4.6,10,0.00,CLR,,0.00,WeatherDisplay:10.37,2013-11-15 13:41:00,
2013-11-15 08:46:00,45.0,-8.5,30.12,SE,135,4.6,4.6,10,0.00,CLR,,0.00,WeatherDisplay:10.37,2013-11-15 13:46:00,
2013-11-15 08:51:00,45.3,-8.2,30.12,NE,45,8.1,8.1,10,0.00,CLR,,0.00,WeatherDisplay:10.37,2013-11-15 13:51:00,
2013-11-15 08:56:00,45.7,-7.9,30.12,SSE,158,4.6,4.6,10,0.00,CLR,,0.00,WeatherDisplay:10.37,2013-11-15 13:56:00,
2013-11-15 09:01:00,46.0,-7.6,30.13,South,180,2.3,2.3,10,0.00,CLR,,0.00,WeatherDisplay:10.37,2013-11-15 14:01:00,
2013-11-15 09:06:00,46.4,-7.4,30.12,SSW,202,6.9,6.9,10,0.00,CLR,,0.00,WeatherDisplay:10.37,2013-11-15 14:06:00,
2013-11-15 09:11:00,46.8,-7.1,30.12,South,180,3.5,3.5,10,0.00,CLR,,0.00,WeatherDisplay:10.37,2013-11-15 14:11:00,
2013-11-15 09:16:00,47.1,-6.8,30.12,SSW,202,5.8,5.8,10,0.00,CLR,,0.00,WeatherDisplay:10.37,2013-11-15 14:16:00,
2013-11-15 09:21:00,47.7,-6.4,30.12,South,180,4.6,4.6,10,0.00,CLR,,0.00,WeatherDisplay:10.37,2013-11-15 14:21:00,
2013-11-15 09:26:00,48.4,-5.8,30.12,South,180,8.1,8.1,10,0.00,CLR,,0.00,WeatherDisplay:10.37,2013-11-15 14:26:00,
2013-11-15 09:31:00,48.7,-5.5,30.12,South,180,4.6,4.6,10,0.00,CLR,,0.00,WeatherDisplay:10.37,2013-11-15 14:31:00,
2013-11-15 09:36:00,49.1,-5.3,30.12,SW,225,5.8,5.8,10,0.00,CLR,,0.00,WeatherDisplay:10.37,2013-11-15 14:36:00,
2013-11-15 09:41:00,49.5,-5.0,30.12,South,180,4.6,4.6,10,0.00,CLR,,0.00,WeatherDisplay:10.37,2013-11-15 14:41:00,
2013-11-15 09:46:00,50.2,-4.4,30.12,South,180,3.5,3.5,10,0.00,CLR,,0.00,WeatherDisplay:10.37,2013-11-15 14:46:00,
2013-11-15 09:51:00,51.1,-3.7,30.12,South,180,3.5,0.0,10,0.00,CLR,,0.00,WeatherDisplay:10.37,2013-11-15 14:51:00,
2013-11-15 09:56:00,52.3,-2.8,30.11,NW,315,5.8,5.8,10,0.00,CLR,,0.00,WeatherDisplay:10.37,2013-11-15 14:56:00,
2013-11-15 10:01:00,52.9,-2.3,30.11,SE,135,3.5,3.5,10,0.00,CLR,,0.00,WeatherDisplay:10.37,2013-11-15 15:01:00,
2013-11-15 10:06:00,53.2,-2.1,30.11,WSW,248,3.5,3.5,10,0.00,CLR,,0.00,WeatherDisplay:10.37,2013-11-15 15:06:00,
2013-11-15 10:11:00,54.1,-1.4,30.11,South,180,5.8,5.8,10,0.00,CLR,,0.00,WeatherDisplay:10.37,2013-11-15 15:11:00,
2013-11-15 10:16:00,54.9,-0.8,30.11,SSE,158,3.5,3.5,10,0.00,CLR,,0.00,WeatherDisplay:10.37,2013-11-15 15:16:00,
2013-11-15 10:21:00,54.5,-1.1,30.11,SSE,158,3.5,3.5,10,0.00,CLR,,0.00,WeatherDisplay:10.37,2013-11-15 15:21:00,
2013-11-15 10:26:00,55.4,-0.4,30.11,South,180,3.5,3.5,10,0.00,CLR,,0.00,WeatherDisplay:10.37,2013-11-15 15:26:00,
2013-11-15 10:31:00,55.9,0.0,30.11,South,180,4.6,4.6,10,0.00,CLR,,0.00,WeatherDisplay:10.37,2013-11-15 15:31:00,
2013-11-15 10:36:00,55.9,0.0,30.11,South,180,5.8,5.8,10,0.00,CLR,,0.00,WeatherDisplay:10.37,2013-11-15 15:36:00,
2013-11-15 10:41:00,56.1,0.2,30.10,SW,225,3.5,3.5,10,0.00,CLR,,0.00,WeatherDisplay:10.37,2013-11-15 15:41:00,
2013-11-15 10:46:00,56.8,0.7,30.10,East,90,5.8,5.8,10,0.00,CLR,,0.00,WeatherDisplay:10.37,2013-11-15 15:46:00,
2013-11-15 10:51:00,56.3,0.3,30.10,South,180,4.6,4.6,10,0.00,CLR,,0.00,WeatherDisplay:10.37,2013-11-15 15:51:00,
2013-11-15 10:56:00,56.7,0.6,30.10,SW,225,3.5,3.5,10,0.00,CLR,,0.00,WeatherDisplay:10.37,2013-11-15 15:56:00,
2013-11-15 11:01:00,57.7,1.4,30.10,SSE,158,2.3,2.3,10,0.00,CLR,,0.00,WeatherDisplay:10.37,2013-11-15 16:01:00,
2013-11-15 11:06:00,58.6,2.1,30.10,NNE,22,3.5,0.0,10,0.00,CLR,,0.00,WeatherDisplay:10.37,2013-11-15 16:06:00,
2013-11-15 11:11:00,59.7,2.9,30.09,South,180,3.5,3.5,10,0.00,CLR,,0.00,WeatherDisplay:10.37,2013-11-15 16:11:00,
2013-11-15 11:16:00,59.5,2.8,30.09,South,180,4.6,0.0,10,0.00,CLR,,0.00,WeatherDisplay:10.37,2013-11-15 16:16:00,
2013-11-15 11:21:00,60.6,3.6,30.09,South,180,2.3,2.3,10,0.00,CLR,,0.00,WeatherDisplay:10.37,2013-11-15 16:21:00,
2013-11-15 11:26:00,60.6,3.6,30.08,South,180,3.5,0.0,10,0.00,CLR,,0.00,WeatherDisplay:10.37,2013-11-15 16:26:00,
2013-11-15 11:31:00,59.5,2.8,30.08,SE,135,2.3,2.3,10,0.00,CLR,,0.00,WeatherDisplay:10.37,2013-11-15 16:31:00,
2013-11-15 11:36:00,59.2,2.5,30.08,South,180,3.5,3.5,10,0.00,CLR,,0.00,WeatherDisplay:10.37,2013-11-15 16:36:00,
2013-11-15 11:41:00,59.2,2.5,30.07,West,270,1.2,0.0,10,0.00,CLR,,0.00,WeatherDisplay:10.37,2013-11-15 16:41:00,
2013-11-15 11:46:00,60.3,3.4,30.08,SSW,202,3.5,3.5,10,0.00,CLR,,0.00,WeatherDisplay:10.37,2013-11-15 16:46:00,
2013-11-15 11:51:00,59.9,3.1,30.08,SW,225,3.5,3.5,10,0.00,CLR,,0.00,WeatherDisplay:10.37,2013-11-15 16:51:00,
2013-11-15 11:56:00,59.7,2.9,30.08,South,180,2.3,2.3,10,0.00,CLR,,0.00,WeatherDisplay:10.37,2013-11-15 16:56:00,
2013-11-15 12:01:00,59.2,2.5,30.08,South,180,3.5,3.5,10,0.00,CLR,,0.00,WeatherDisplay:10.37,2013-11-15 17:01:00,
2013-11-15 12:06:00,59.5,2.8,30.08,South,180,3.5,3.5,10,0.00,CLR,,0.00,WeatherDisplay:10.37,2013-11-15 17:06:00,
2013-11-15 12:11:00,60.1,3.2,30.08,South,180,3.5,3.5,10,0.00,CLR,,0.00,WeatherDisplay:10.37,2013-11-15 17:11:00,
2013-11-15 12:16:00,60.1,3.2,30.07,SSE,158,3.5,0.0,10,0.00,CLR,,0.00,WeatherDisplay:10.37,2013-11-15 17:16:00,
2013-11-15 12:21:00,59.7,2.9,30.07,North,0,2.3,0.0,10,0.00,CLR,,0.00,WeatherDisplay:10.37,2013-11-15 17:21:00,
2013-11-15 12:26:00,59.7,2.9,30.06,South,180,3.5,3.5,10,0.00,CLR,,0.00,WeatherDisplay:10.37,2013-11-15 17:26:00,
2013-11-15 12:31:00,59.4,2.7,30.06,SW,225,3.5,3.5,10,0.00,CLR,,0.00,WeatherDisplay:10.37,2013-11-15 17:31:00,
2013-11-15 12:36:00,58.5,2.0,30.06,South,180,3.5,3.5,10,0.00,CLR,,0.00,WeatherDisplay:10.37,2013-11-15 17:36:00,
2013-11-15 12:41:00,58.1,1.7,30.06,NE,45,2.3,0.0,10,0.00,CLR,,0.00,WeatherDisplay:10.37,2013-11-15 17:41:00,
2013-11-15 12:46:00,57.9,1.6,30.06,SSW,202,3.5,3.5,10,0.00,CLR,,0.00,WeatherDisplay:10.37,2013-11-15 17:46:00,
2013-11-15 12:51:00,57.7,1.4,30.06,South,180,3.5,3.5,10,0.00,CLR,,0.00,WeatherDisplay:10.37,2013-11-15 17:51:00,
2013-11-15 12:56:00,58.8,2.3,30.06,East,90,3.5,3.5,10,0.00,CLR,,0.00,WeatherDisplay:10.37,2013-11-15 17:56:00,
2013-11-15 13:01:00,59.4,2.7,30.05,South,180,3.5,3.5,10,0.00,CLR,,0.00,WeatherDisplay:10.37,2013-11-15 18:01:00,
2013-11-15 13:06:00,59.4,2.7,30.05,South,180,3.5,3.5,10,0.00,CLR,,0.00,WeatherDisplay:10.37,2013-11-15 18:06:00,
2013-11-15 13:11:00,60.4,3.5,30.05,SW,225,2.3,2.3,10,0.00,CLR,,0.00,WeatherDisplay:10.37,2013-11-15 18:11:00,
2013-11-15 13:16:00,60.6,3.6,30.05,SW,225,3.5,3.5,10,0.00,CLR,,0.00,WeatherDisplay:10.37,2013-11-15 18:16:00,
2013-11-15 13:21:00,60.6,3.6,30.05,ENE,68,4.6,4.6,10,0.00,CLR,,0.00,WeatherDisplay:10.37,2013-11-15 18:21:00,
2013-11-15 13:26:00,59.9,3.1,30.05,West,270,5.8,5.8,10,0.00,CLR,,0.00,WeatherDisplay:10.37,2013-11-15 18:26:00,
2013-11-15 13:31:00,59.0,2.4,30.05,South,180,3.5,3.5,10,0.00,CLR,,0.00,WeatherDisplay:10.37,2013-11-15 18:31:00,
2013-11-15 13:36:00,58.5,2.0,30.05,South,180,3.5,3.5,10,0.00,CLR,,0.00,WeatherDisplay:10.37,2013-11-15 18:36:00,
2013-11-15 13:41:00,59.9,3.1,30.05,South,180,3.5,3.5,10,0.00,CLR,,0.00,WeatherDisplay:10.37,2013-11-15 18:41:00,
2013-11-15 13:46:00,62.2,4.9,30.05,South,180,5.8,5.8,10,0.00,CLR,,0.00,WeatherDisplay:10.37,2013-11-15 18:46:00,
2013-11-15 13:51:00,63.3,5.7,30.05,West,270,5.8,0.0,10,0.00,CLR,,0.00,WeatherDisplay:10.37,2013-11-15 18:51:00,
2013-11-15 13:56:00,63.0,5.4,30.05,SW,225,6.9,6.9,10,0.00,CLR,,0.00,WeatherDisplay:10.37,2013-11-15 18:56:00,
2013-11-15 14:01:00,62.4,5.0,30.05,SSE,158,4.6,4.6,10,0.00,CLR,,0.00,WeatherDisplay:10.37,2013-11-15 19:01:00,
2013-11-15 14:06:00,63.0,5.4,30.05,NE,45,5.8,5.8,10,0.00,CLR,,0.00,WeatherDisplay:10.37,2013-11-15 19:06:00,
2013-11-15 14:11:00,63.3,5.7,30.05,South,180,2.3,2.3,10,0.00,CLR,,0.00,WeatherDisplay:10.37,2013-11-15 19:11:00,
2013-11-15 14:16:00,61.3,4.2,30.04,SW,225,4.6,4.6,10,0.00,CLR,,0.00,WeatherDisplay:10.37,2013-11-15 19:16:00,
2013-11-15 14:21:00,59.0,2.4,30.04,SSW,202,5.4,5.4,10,0.00,CLR,,0.00,WeatherDisplay:10.37,2013-11-15 19:21:00,
2013-11-15 14:26:00,57.7,1.4,30.04,South,180,3.5,3.5,10,0.00,CLR,,0.00,WeatherDisplay:10.37,2013-11-15 19:26:00,
2013-11-15 14:31:00,57.0,0.9,30.04,South,180,3.5,3.5,10,0.00,CLR,,0.00,WeatherDisplay:10.37,2013-11-15 19:31:00,
2013-11-15 14:36:00,56.7,0.6,30.03,South,180,4.6,4.6,10,0.00,CLR,,0.00,WeatherDisplay:10.37,2013-11-15 19:36:00,
2013-11-15 14:41:00,56.1,0.2,30.03,South,180,4.6,4.6,10,0.00,CLR,,0.00,WeatherDisplay:10.37,2013-11-15 19:41:00,
2013-11-15 14:46:00,55.9,0.0,30.03,WNW,292,3.5,3.5,10,0.00,CLR,,0.00,WeatherDisplay:10.37,2013-11-15 19:46:00,
2013-11-15 14:51:00,55.4,-0.4,30.03,East,90,5.8,0.0,10,0.00,CLR,,0.00,WeatherDisplay:10.37,2013-11-15 19:51:00,
2013-11-15 14:56:00,55.0,-0.7,30.03,South,180,3.5,3.5,10,0.00,CLR,,0.00,WeatherDisplay:10.37,2013-11-15 19:56:00,
2013-11-15 15:01:00,54.7,-0.9,30.03,SSW,202,1.2,0.0,10,0.00,CLR,,0.00,WeatherDisplay:10.37,2013-11-15 20:01:00,
2013-11-15 15:06:00,54.5,-1.1,30.04,SW,225,3.5,3.5,10,0.00,CLR,,0.00,WeatherDisplay:10.37,2013-11-15 20:06:00,
2013-11-15 15:11:00,54.1,-1.4,30.04,South,180,3.5,3.5,10,0.00,CLR,,0.00,WeatherDisplay:10.37,2013-11-15 20:11:00,
2013-11-15 15:16:00,54.1,-1.4,30.04,South,180,2.3,2.3,10,0.00,CLR,,0.00,WeatherDisplay:10.37,2013-11-15 20:16:00,
2013-11-15 15:21:00,54.0,-1.5,30.04,South,180,4.6,4.6,10,0.00,CLR,,0.00,WeatherDisplay:10.37,2013-11-15 20:21:00,
2013-11-15 15:26:00,53.8,-1.6,30.04,NW,315,3.5,3.5,10,0.00,CLR,,0.00,WeatherDisplay:10.37,2013-11-15 20:26:00,
2013-11-15 15:31:00,53.4,-1.9,30.04,South,180,5.8,5.8,10,0.00,CLR,,0.00,WeatherDisplay:10.37,2013-11-15 20:31:00,
2013-11-15 15:36:00,53.1,-2.2,30.04,SW,225,3.5,3.5,10,0.00,CLR,,0.00,WeatherDisplay:10.37,2013-11-15 20:36:00,
2013-11-15 15:41:00,52.9,-2.3,30.04,SE,135,3.5,0.0,10,0.00,CLR,,0.00,WeatherDisplay:10.37,2013-11-15 20:41:00,
2013-11-15 15:46:00,52.5,-2.6,30.05,East,90,1.2,0.0,10,0.00,CLR,,0.00,WeatherDisplay:10.37,2013-11-15 20:46:00,
2013-11-15 15:51:00,52.5,-2.6,30.05,South,180,2.3,0.0,10,0.00,CLR,,0.00,WeatherDisplay:10.37,2013-11-15 20:51:00,
2013-11-15 15:56:00,52.2,-2.9,30.05,South,180,3.5,3.5,10,0.00,CLR,,0.00,WeatherDisplay:10.37,2013-11-15 20:56:00,
2013-11-15 16:01:00,52.0,-3.0,30.05,ENE,68,1.2,0.0,10,0.00,CLR,,0.00,WeatherDisplay:10.37,2013-11-15 21:01:00,
2013-11-15 16:06:00,51.6,-3.3,30.05,NE,45,2.3,0.0,10,0.00,CLR,,0.00,WeatherDisplay:10.37,2013-11-15 21:06:00,
2013-11-15 16:11:00,51.4,-3.4,30.06,South,180,1.2,0.0,10,0.00,CLR,,0.00,WeatherDisplay:10.37,2013-11-15 21:11:00,
2013-11-15 16:16:00,51.1,-3.7,30.06,South,180,1.2,0.0,10,0.00,CLR,,0.00,WeatherDisplay:10.37,2013-11-15 21:16:00,
2013-11-15 16:21:00,50.9,-3.9,30.06,SW,225,3.5,0.0,10,0.00,CLR,,0.00,WeatherDisplay:10.37,2013-11-15 21:21:00,
2013-11-15 16:26:00,50.7,-4.0,30.06,South,180,2.3,2.3,10,0.00,CLR,,0.00,WeatherDisplay:10.37,2013-11-15 21:26:00,
2013-11-15 16:31:00,50.4,-4.3,30.05,South,180,0.0,0.0,10,0.00,CLR,,0.00,WeatherDisplay:10.37,2013-11-15 21:31:00,
2013-11-15 16:36:00,50.2,-4.4,30.05,South,180,1.2,0.0,10,0.00,CLR,,0.00,WeatherDisplay:10.37,2013-11-15 21:36:00,
2013-11-15 16:41:00,49.8,-4.7,30.05,SW,225,0.0,0.0,10,0.00,CLR,,0.00,WeatherDisplay:10.37,2013-11-15 21:41:00,
2013-11-15 16:46:00,49.5,-5.0,30.06,South,180,0.0,0.0,10,0.00,CLR,,0.00,WeatherDisplay:10.37,2013-11-15 21:46:00,
2013-11-15 16:51:00,49.1,-5.3,30.06,South,180,0.0,0.0,10,0.00,CLR,,0.00,WeatherDisplay:10.37,2013-11-15 21:51:00,
2013-11-15 16:56:00,48.6,-5.7,30.06,South,180,0.0,0.0,10,0.00,CLR,,0.00,WeatherDisplay:10.37,2013-11-15 21:56:00,
2013-11-15 17:01:00,48.2,-6.0,30.06,South,180,0.0,0.0,10,0.00,CLR,,0.00,WeatherDisplay:10.37,2013-11-15 22:01:00,
2013-11-15 17:06:00,47.8,-6.2,30.06,South,180,1.2,0.0,10,0.00,CLR,,0.00,WeatherDisplay:10.37,2013-11-15 22:06:00,
2013-11-15 17:11:00,47.5,-6.5,30.06,SW,225,1.2,0.0,10,0.00,CLR,,0.00,WeatherDisplay:10.37,2013-11-15 22:11:00,
2013-11-15 17:16:00,47.1,-6.8,30.06,North,0,0.0,0.0,10,0.00,CLR,,0.00,WeatherDisplay:10.37,2013-11-15 22:16:00,
2013-11-15 17:21:00,46.8,-7.1,30.06,SW,225,1.2,0.0,10,0.00,CLR,,0.00,WeatherDisplay:10.37,2013-11-15 22:21:00,
2013-11-15 17:26:00,46.2,-7.5,30.06,SW,225,0.0,0.0,10,0.00,CLR,,0.00,WeatherDisplay:10.37,2013-11-15 22:26:00,
2013-11-15 17:31:00,46.0,-7.6,30.06,South,180,0.0,0.0,10,0.00,CLR,,0.00,WeatherDisplay:10.37,2013-11-15 22:31:00,
2013-11-15 17:36:00,45.7,-7.9,30.06,South,180,0.0,0.0,10,0.00,CLR,,0.00,WeatherDisplay:10.37,2013-11-15 22:36:00,
2013-11-15 17:41:00,45.3,-8.2,30.06,South,180,0.0,0.0,10,0.00,CLR,,0.00,WeatherDisplay:10.37,2013-11-15 22:41:00,
2013-11-15 17:46:00,44.8,-8.6,30.06,South,180,0.0,0.0,10,0.00,CLR,,0.00,WeatherDisplay:10.37,2013-11-15 22:46:00,
2013-11-15 17:51:00,44.2,-9.0,30.06,South,180,0.0,0.0,10,0.00,CLR,,0.00,WeatherDisplay:10.37,2013-11-15 22:51:00,
2013-11-15 17:56:00,43.7,-9.5,30.06,South,180,0.0,0.0,10,0.00,CLR,,0.00,WeatherDisplay:10.37,2013-11-15 22:56:00,
2013-11-15 18:01:00,43.3,-9.7,30.06,South,180,0.0,0.0,10,0.00,CLR,,0.00,WeatherDisplay:10.37,2013-11-15 23:01:00,
2013-11-15 18:06:00,43.2,-9.9,30.06,South,180,0.0,0.0,10,0.00,CLR,,0.00,WeatherDisplay:10.37,2013-11-15 23:06:00,
2013-11-15 18:11:00,43.0,-10.0,30.06,South,180,0.0,0.0,10,0.00,CLR,,0.00,WeatherDisplay:10.37,2013-11-15 23:11:00,
2013-11-15 18:16:00,42.8,-10.2,30.06,South,180,0.0,0.0,10,0.00,CLR,,0.00,WeatherDisplay:10.37,2013-11-15 23:16:00,
2013-11-15 18:21:00,42.6,-10.3,30.06,South,180,0.0,0.0,10,0.00,CLR,,0.00,WeatherDisplay:10.37,2013-11-15 23:21:00,
2013-11-15 18:26:00,42.4,-10.4,30.06,South,180,0.0,0.0,10,0.00,CLR,,0.00,WeatherDisplay:10.37,2013-11-15 23:26:00,
2013-11-15 18:31:00,42.3,-10.6,30.06,South,180,0.0,0.0,10,0.00,CLR,,0.00,WeatherDisplay:10.37,2013-11-15 23:31:00,
2013-11-15 18:36:00,42.1,-10.7,30.06,South,180,0.0,0.0,10,0.00,CLR,,0.00,WeatherDisplay:10.37,2013-11-15 23:36:00,
2013-11-15 18:41:00,41.9,-10.9,30.06,South,180,0.0,0.0,10,0.00,CLR,,0.00,WeatherDisplay:10.37,2013-11-15 23:41:00,
2013-11-15 18:46:00,41.5,-11.1,30.06,South,180,0.0,0.0,10,0.00,CLR,,0.00,WeatherDisplay:10.37,2013-11-15 23:46:00,
2013-11-15 18:51:00,41.5,-11.1,30.05,South,180,0.0,0.0,10,0.00,CLR,,0.00,WeatherDisplay:10.37,2013-11-15 23:51:00,
2013-11-15 18:56:00,41.5,-11.1,30.06,South,180,0.0,0.0,10,0.00,CLR,,0.00,WeatherDisplay:10.37,2013-11-15 23:56:00,
2013-11-15 19:01:00,41.4,-11.3,30.05,South,180,0.0,0.0,10,0.00,CLR,,0.00,WeatherDisplay:10.37,2013-11-16 00:01:00,
2013-11-15 19:06:00,41.4,-9.3,30.06,South,180,0.0,0.0,11,0.00,CLR,,0.00,WeatherDisplay:10.37,2013-11-16 00:06:00,
2013-11-15 19:11:00,41.4,-5.9,30.06,South,180,0.0,0.0,13,0.00,CLR,,0.00,WeatherDisplay:10.37,2013-11-16 00:11:00,
2013-11-15 19:16:00,41.7,-5.6,30.06,South,180,0.0,0.0,13,0.00,CLR,,0.00,WeatherDisplay:10.37,2013-11-16 00:16:00,
2013-11-15 19:21:00,41.7,-4.1,30.06,South,180,0.0,0.0,14,0.00,CLR,,0.00,WeatherDisplay:10.37,2013-11-16 00:21:00,
2013-11-15 19:26:00,42.1,-2.3,30.07,South,180,0.0,0.0,15,0.00,CLR,,0.00,WeatherDisplay:10.37,2013-11-16 00:26:00,
2013-11-15 19:31:00,42.4,-0.7,30.07,SW,225,3.5,0.0,16,0.00,CLR,,0.00,WeatherDisplay:10.37,2013-11-16 00:31:00,
2013-11-15 19:36:00,43.0,-1.6,30.07,South,180,0.0,0.0,15,0.00,CLR,,0.00,WeatherDisplay:10.37,2013-11-16 00:36:00,
2013-11-15 19:41:00,42.8,-3.2,30.07,West,270,0.0,0.0,14,0.00,CLR,,0.00,WeatherDisplay:10.37,2013-11-16 00:41:00,
2013-11-15 19:46:00,42.6,-4.9,30.08,West,270,0.0,0.0,13,0.00,CLR,,0.00,WeatherDisplay:10.37,2013-11-16 00:46:00,
2013-11-15 19:51:00,42.6,-4.9,30.08,South,180,1.2,0.0,13,0.00,CLR,,0.00,WeatherDisplay:10.37,2013-11-16 00:51:00,
2013-11-15 19:56:00,42.8,-4.8,30.08,West,270,2.3,2.3,13,0.00,CLR,,0.00,WeatherDisplay:10.37,2013-11-16 00:56:00,
2013-11-15 20:01:00,42.8,-6.4,30.08,West,270,0.0,0.0,12,0.00,CLR,,0.00,WeatherDisplay:10.37,2013-11-16 01:01:00,
2013-11-15 20:06:00,42.6,-8.4,30.07,West,270,0.0,0.0,11,0.00,CLR,,0.00,WeatherDisplay:10.37,2013-11-16 01:06:00,
2013-11-15 20:11:00,42.3,-8.6,30.07,West,270,0.0,0.0,11,0.00,CLR,,0.00,WeatherDisplay:10.37,2013-11-16 01:11:00,
2013-11-15 20:16:00,42.1,-8.8,30.07,SW,225,1.2,0.0,11,0.00,CLR,,0.00,WeatherDisplay:10.37,2013-11-16 01:16:00,
2013-11-15 20:21:00,42.1,-8.8,30.07,SW,225,0.0,0.0,11,0.00,CLR,,0.00,WeatherDisplay:10.37,2013-11-16 01:21:00,
2013-11-15 20:26:00,41.9,-8.9,30.07,SW,225,0.0,0.0,11,0.00,CLR,,0.00,WeatherDisplay:10.37,2013-11-16 01:26:00,
2013-11-15 20:31:00,41.7,-9.1,30.07,SW,225,0.0,0.0,11,0.00,CLR,,0.00,WeatherDisplay:10.37,2013-11-16 01:31:00,
2013-11-15 20:36:00,41.5,-11.1,30.07,SW,225,0.0,0.0,10,0.00,CLR,,0.00,WeatherDisplay:10.37,2013-11-16 01:36:00,
2013-11-15 20:41:00,41.4,-9.3,30.07,SW,225,0.0,0.0,11,0.00,CLR,,0.00,WeatherDisplay:10.37,2013-11-16 01:41:00,
2013-11-15 20:46:00,41.4,-7.6,30.07,SW,225,0.0,0.0,12,0.00,CLR,,0.00,WeatherDisplay:10.37,2013-11-16 01:46:00,
2013-11-15 20:51:00,41.2,-7.7,30.07,SW,225,0.0,0.0,12,0.00,CLR,,0.00,WeatherDisplay:10.37,2013-11-16 01:51:00,
2013-11-15 20:56:00,41.2,-7.7,30.07,SW,225,0.0,0.0,12,0.00,CLR,,0.00,WeatherDisplay:10.37,2013-11-16 01:56:00,
2013-11-15 21:01:00,41.0,-7.8,30.07,SW,225,0.0,0.0,12,0.00,CLR,,0.00,WeatherDisplay:10.37,2013-11-16 02:01:00,
2013-11-15 21:06:00,40.8,-8.0,30.07,SW,225,0.0,0.0,12,0.00,CLR,,0.00,WeatherDisplay:10.37,2013-11-16 02:06:00,
2013-11-15 21:11:00,40.5,-8.3,30.07,SW,225,0.0,0.0,12,0.00,CLR,,0.00,WeatherDisplay:10.37,2013-11-16 02:11:00,
2013-11-15 21:16:00,40.3,-6.8,30.08,SW,225,1.2,0.0,13,0.00,CLR,,0.00,WeatherDisplay:10.37,2013-11-16 02:16:00,
2013-11-15 21:21:00,40.1,-6.9,30.08,SW,225,0.0,0.0,13,0.00,CLR,,0.00,WeatherDisplay:10.37,2013-11-16 02:21:00,
2013-11-15 21:26:00,40.1,-5.4,30.08,South,180,1.2,0.0,14,0.00,CLR,,0.00,WeatherDisplay:10.37,2013-11-16 02:26:00,
2013-11-15 21:31:00,40.1,-5.4,30.08,South,180,0.0,0.0,14,0.00,CLR,,0.00,WeatherDisplay:10.37,2013-11-16 02:31:00,
2013-11-15 21:36:00,39.9,-7.1,30.09,South,180,0.0,0.0,13,0.00,CLR,,0.00,WeatherDisplay:10.37,2013-11-16 02:36:00,
2013-11-15 21:41:00,39.4,-7.5,30.09,South,180,0.0,0.0,13,0.00,CLR,,0.00,WeatherDisplay:10.37,2013-11-16 02:41:00,
2013-11-15 21:46:00,39.2,-7.6,30.09,South,180,0.0,0.0,13,0.00,CLR,,0.00,WeatherDisplay:10.37,2013-11-16 02:46:00,
2013-11-15 21:51:00,39.0,-7.8,30.10,South,180,0.0,0.0,13,0.00,CLR,,0.00,WeatherDisplay:10.37,2013-11-16 02:51:00,
2013-11-15 21:56:00,38.8,-6.4,30.11,South,180,3.5,0.0,14,0.00,CLR,,0.00,WeatherDisplay:10.37,2013-11-16 02:56:00,
2013-11-15 22:01:00,39.4,-4.5,30.10,SW,225,1.2,0.0,15,0.00,CLR,,0.00,WeatherDisplay:10.37,2013-11-16 03:01:00,
2013-11-15 22:06:00,39.9,-4.1,30.11,South,180,2.3,2.3,15,0.00,CLR,,0.00,WeatherDisplay:10.37,2013-11-16 03:06:00,
2013-11-15 22:11:00,40.5,-5.1,30.11,SW,225,2.3,0.0,14,0.00,CLR,,0.00,WeatherDisplay:10.37,2013-11-16 03:11:00,
2013-11-15 22:16:00,40.6,-8.1,30.11,South,180,0.0,0.0,12,0.00,CLR,,0.00,WeatherDisplay:10.37,2013-11-16 03:16:00,
2013-11-15 22:21:00,40.6,-9.9,30.10,West,270,1.2,0.0,11,0.00,CLR,,0.00,WeatherDisplay:10.37,2013-11-16 03:21:00,
2013-11-15 22:26:00,40.8,-9.8,30.11,South,180,0.0,0.0,11,0.00,CLR,,0.00,WeatherDisplay:10.37,2013-11-16 03:26:00,
2013-11-15 22:31:00,41.0,-9.6,30.10,South,180,1.2,0.0,11,0.00,CLR,,0.00,WeatherDisplay:10.37,2013-11-16 03:31:00,
2013-11-15 22:36:00,41.2,-11.4,30.11,SW,225,1.6,0.0,10,0.00,CLR,,0.00,WeatherDisplay:10.37,2013-11-16 03:36:00,
2013-11-15 22:41:00,41.5,-11.1,30.10,South,180,1.2,0.0,10,0.00,CLR,,0.00,WeatherDisplay:10.37,2013-11-16 03:41:00,
2013-11-15 22:46:00,41.5,-11.1,30.10,South,180,0.0,0.0,10,0.00,CLR,,0.00,WeatherDisplay:10.37,2013-11-16 03:46:00,
2013-11-15 22:51:00,41.5,-11.1,30.11,South,180,2.3,0.0,10,0.00,CLR,,0.00,WeatherDisplay:10.37,2013-11-16 03:51:00,
2013-11-15 22:56:00,41.9,-10.9,30.11,SE,135,2.3,0.0,10,0.00,CLR,,0.00,WeatherDisplay:10.37,2013-11-16 03:56:00,
2013-11-15 23:01:00,42.1,-10.7,30.11,SW,225,3.5,0.0,10,0.00,CLR,,0.00,WeatherDisplay:10.37,2013-11-16 04:01:00,
2013-11-15 23:06:00,42.3,-10.6,30.11,SW,225,2.3,0.0,10,0.00,CLR,,0.00,WeatherDisplay:10.37,2013-11-16 04:06:00,
2013-11-15 23:11:00,42.1,-10.7,30.11,SE,135,1.2,0.0,10,0.00,CLR,,0.00,WeatherDisplay:10.37,2013-11-16 04:11:00,
2013-11-15 23:16:00,41.5,-11.1,30.11,SE,135,1.2,0.0,10,0.00,CLR,,0.00,WeatherDisplay:10.37,2013-11-16 04:16:00,
2013-11-15 23:21:00,41.4,-11.3,30.10,SE,135,0.0,0.0,10,0.00,CLR,,0.00,WeatherDisplay:10.37,2013-11-16 04:21:00,
2013-11-15 23:26:00,41.2,-11.4,30.11,South,180,0.0,0.0,10,0.00,CLR,,0.00,WeatherDisplay:10.37,2013-11-16 04:26:00,
2013-11-15 23:31:00,41.0,-11.6,30.11,NW,315,0.0,0.0,10,0.00,CLR,,0.00,WeatherDisplay:10.37,2013-11-16 04:31:00,
2013-11-15 23:36:00,41.2,-11.4,30.11,South,180,2.3,2.3,10,0.00,CLR,,0.00,WeatherDisplay:10.37,2013-11-16 04:36:00,
2013-11-15 23:41:00,41.4,-11.3,30.11,SW,225,1.2,1.2,10,0.00,CLR,,0.00,WeatherDisplay:10.37,2013-11-16 04:41:00,
2013-11-15 23:46:00,41.4,-11.3,30.11,South,180,2.3,2.3,10,0.00,CLR,,0.00,WeatherDisplay:10.37,2013-11-16 04:46:00,
2013-11-15 23:51:00,41.0,-11.6,30.10,SW,225,0.0,0.0,10,0.00,CLR,,0.00,WeatherDisplay:10.37,2013-11-16 04:51:00,
2013-11-15 23:56:00,41.0,-11.6,30.10,South,180,0.0,0.0,10,0.00,CLR,,0.00,WeatherDisplay:10.37,2013-11-16 04:56:00,